Orbital Elements at Epoch 2459200.5 (2020-Dec-17.0) TDB
Reference: JPL 25 (heliocentric ecliptic J2000)
Element | Value | Uncertainty (1-sigma) | Units |
e | .03753547354972854 | 3.6236e-08 | |
a | 2.852103288844567 | 1.4357e-08 | au |
q | 2.745048241285048 | 1.0201e-07 | au |
i | 1.090660849068797 | 4.6004e-06 | deg |
node | 324.0408322599538 | 0.00022961 | deg |
peri | 104.4172162276128 | 0.00023955 | deg |
M | 248.9295396980037 | 7.0026e-05 | deg |
tp | 2459743.303165794313 (2022-Jun-12.80316579) | 0.00034339 | TDB |
period | 1759.325919372646 4.82 | 1.3284e-05 3.637e-08 | d yr |
n | .2046238255435761 | 1.5451e-09 | deg/d |
Q | 2.959158336404086 | 1.4896e-08 | au |
|
| | Orbit Determination Parameters
Additional Information
|